Weather History for KDET - November, 2012

Change the Weather History Date:

Friday, November 9, 2012

  Actual Average Record
Temperature  
Mean Temperature 42 °F -  
Max Temperature 51 °F 51 °F 73 °F (1999)
Min Temperature 32 °F 38 °F 20 °F (1991)
Degree Days  
Heating Degree Days 24    
Moisture  
Dew Point 37 °F    
Average Humidity 80    
Maximum Humidity 97    
Minimum Humidity 61    
Precipitation  
Precipitation 0.01 in - - ()
Sea Level Pressure  
Sea Level Pressure 30.17 in    
Wind  
Wind Speed 4 mph (SSW)    
Max Wind Speed 10 mph    
Max Gust Speed -    
Visibility 6 miles    
Events Rain    
Averages and records for this station are not official NWS values.
T = Trace of Precipitation, MM = Missing Value Source: NWS Daily Summary

Daily Weather History Graph

Daily Weather History Graph

Search for Another Location

Airport or City:

Trip Planner

Search our weather history database for the weather conditions in past years. The results will help you decide how hot, cold, wet, or windy it might be!

Date:

Astronomy

Nov. 09, 2012 Rise Set
Actual Time 7:16 AM EST 5:15 PM EST
Civil Twilight 6:46 AM EST 5:45 PM EST
Nautical Twilight 6:12 AM EST 6:18 PM EST
Astronomical Twilight 5:39 AM EST 6:51 PM EST
Moon 2:08 AM EST (11/9) 2:32 PM EST (11/9)
Length of Visible Light 10h 58m
Length of Day
9h 59m
Waning Crescent, 23% of the Moon is Illuminated
Nov 9
Waning Crescent
Nov 13
New
Nov 20
First Quarter
Nov 28
Full
Dec 6
Last Quarter

Hourly Weather History & Observations

Time (EST) Temp. Windchill Dew Point Humidity Pressure Visibility Wind Dir Wind Speed Gust Speed Precip Events Conditions
12:53 AM 33.1 °F - 30.0 °F 89% 30.17 in 7.0 mi Calm Calm - N/A   Clear
1:53 AM 37.0 °F 33.3 °F 34.0 °F 89% 30.17 in 6.0 mi West 4.6 mph - N/A   Clear
2:53 AM 33.1 °F - 32.0 °F 96% 30.18 in 5.0 mi Calm Calm - N/A   Clear
3:53 AM 32.0 °F - 30.9 °F 96% 30.18 in 4.0 mi Calm Calm - N/A   Clear
4:53 AM 32.0 °F - 30.0 °F 92% 30.19 in 6.0 mi Calm Calm - N/A   Mostly Cloudy
5:53 AM 35.1 °F 31.0 °F 32.0 °F 89% 30.20 in 6.0 mi WSW 4.6 mph - N/A   Overcast
6:46 AM 35.6 °F 31.7 °F 33.8 °F 93% 30.19 in 6.0 mi WSW 4.6 mph - N/A   Overcast
6:53 AM 36.0 °F 32.1 °F 33.1 °F 89% 30.20 in 6.0 mi WSW 4.6 mph - N/A   Overcast
7:53 AM 37.9 °F 33.5 °F 34.0 °F 86% 30.21 in 5.0 mi WSW 5.8 mph - N/A   Overcast
8:53 AM 39.9 °F 35.8 °F 35.1 °F 83% 30.22 in 5.0 mi SW 5.8 mph - N/A   Haze
9:53 AM 42.1 °F 37.7 °F 36.0 °F 79% 30.22 in 5.0 mi SW 6.9 mph - N/A   Haze
10:53 AM 45.0 °F 40.6 °F 37.0 °F 74% 30.21 in 5.0 mi SW 8.1 mph - N/A   Haze
11:53 AM 46.9 °F - 36.0 °F 66% 30.20 in 7.0 mi SSW 9.2 mph - N/A   Overcast
12:46 PM 48.2 °F - 37.4 °F 66% 30.17 in 8.0 mi WSW 9.2 mph - N/A   Scattered Clouds
12:53 PM 48.0 °F - 36.0 °F 63% 30.18 in 7.0 mi SW 8.1 mph - N/A   Partly Cloudy
1:53 PM 50.0 °F - 37.9 °F 63% 30.16 in 7.0 mi South 6.9 mph - N/A   Clear
2:53 PM 51.1 °F - 37.9 °F 61% 30.14 in 8.0 mi SSW 8.1 mph - N/A   Clear
3:53 PM 50.0 °F - 37.9 °F 63% 30.13 in 8.0 mi South 10.4 mph - N/A   Clear
4:53 PM 50.0 °F - 39.0 °F 66% 30.13 in 8.0 mi South 5.8 mph - N/A   Mostly Cloudy
5:53 PM 48.0 °F - 39.0 °F 71% 30.14 in 8.0 mi South 4.6 mph - N/A   Overcast
6:53 PM 48.0 °F - 39.9 °F 74% 30.14 in 8.0 mi SSE 5.8 mph - 0.00 in   Overcast
7:53 PM 46.9 °F - 41.0 °F 80% 30.14 in 7.0 mi ESE 5.8 mph - 0.00 in   Overcast
8:53 PM 46.9 °F - 41.0 °F 80% 30.13 in 7.0 mi East 5.8 mph - N/A   Overcast
9:53 PM 46.0 °F 43.9 °F 43.0 °F 89% 30.15 in 5.0 mi ENE 4.6 mph - 0.00 in   Overcast
10:53 PM 46.0 °F 43.9 °F 43.0 °F 89% 30.17 in 4.0 mi East 4.6 mph - 0.01 in Rain Light Rain
11:53 PM 45.0 °F 41.2 °F 44.1 °F 97% 30.16 in 4.0 mi East 6.9 mph - 0.00 in   Overcast